Wind_Speed
28 30 32 34 35 37 39 40 41 42 43 44 43 43 43 43 44 45 45 45 44 44 45 45 45 44 43 43 43 43 43 42 41 41 40 38 36 35 35 33 32 31 31
29 30 32 33 35 37 38 40 42 44 45 46 46 47 47 47 47 47 48 48 47 47 47 46 46 45 45 45 45 45 45 44 43 42 42 41 39 37 37 36 35 34 32
32 33 34 35 37 39 41 43 44 46 47 47 47 47 48 49 49 49 49 49 49 48 47 46 45 45 45 46 47 48 48 47 47 46 45 44 43 41 40 40 39 37 36
34 36 38 39 40 42 44 47 48 49 49 48 48 48 49 49 50 51 51 51 51 50 49 48 46 45 46 47 48 49 50 50 50 50 50 49 47 45 43 43 42 41 40
39 41 44 46 48 49 50 51 52 53 54 55 55 55 53 52 51 51 51 52 52 51 51 50 49 48 48 50 51 52 53 53 53 54 54 54 53 51 49 47 45 42 42
48 50 51 52 53 53 52 54 55 57 59 61 62 62 61 59 57 56 55 54 54 53 53 53 53 53 52 53 55 56 57 57 56 57 57 57 56 55 53 51 48 44 43
55 55 54 54 54 53 51 51 52 54 56 59 61 62 63 62 61 59 57 57 57 58 59 60 61 61 60 60 60 61 60 60 60 60 60 59 59 58 56 54 51 48 45
59 61 61 61 62 63 63 63 64 64 62 63 64 65 64 62 61 61 60 61 62 64 66 68 70 71 70 69 68 66 64 63 63 63 63 63 62 60 59 57 53 51 49
64 67 69 71 73 73 73 75 75 76 75 74 75 76 76 74 73 70 68 66 67 69 72 74 76 77 77 76 75 73 69 66 64 65 65 65 65 63 61 59 55 53 51
72 75 78 79 79 79 79 79 79 79 80 80 81 82 83 84 85 85 83 81 80 79 79 77 77 78 78 78 77 76 74 70 67 67 67 67 67 67 64 61 58 55 55
80 81 82 83 83 82 80 79 78 78 79 79 79 81 82 83 85 89 90 88 86 83 79 74 72 74 76 76 76 75 75 74 72 70 69 68 69 69 68 65 61 58 57
83 82 82 82 80 79 78 77 76 76 75 74 74 75 76 77 78 81 83 81 79 74 70 68 68 69 69 69 69 69 70 71 71 70 69 68 68 69 70 67 63 60 58
82 80 78 74 71 70 68 68 67 67 66 65 65 64 65 65 67 69 70 66 62 59 60 62 63 63 61 61 61 62 64 66 67 68 68 67 66 67 68 68 65 61 59
78 73 67 62 60 58 58 59 59 59 59 60 60 59 59 59 60 61 61 59 55 50 51 51 53 53 53 54 56 57 59 60 61 62 63 63 62 61 63 64 62 60 57
67 63 59 58 58 59 60 61 60 59 60 60 60 59 57 56 57 55 53 51 48 44 40 40 42 43 43 43 42 41 40 41 44 46 48 49 51 54 57 58 56 54 52
62 60 58 59 61 61 61 60 58 58 58 57 55 54 52 50 48 45 44 42 40 37 33 33 34 34 34 33 31 29 29 29 31 31 30 33 39 45 49 49 49 49 49
60 59 59 60 60 58 55 52 51 50 48 47 46 44 42 40 38 37 36 35 33 31 28 27 27 28 28 28 28 27 25 25 23 19 22 27 31 35 37 37 39 42 44
55 54 53 51 49 45 42 40 38 37 37 36 34 33 32 32 31 30 30 28 27 26 25 24 24 23 24 25 26 25 23 22 19 17 21 25 27 29 31 31 31 32 34
45 43 40 37 35 33 32 31 31 31 30 29 28 28 29 29 29 28 27 25 23 23 23 24 24 23 22 23 23 22 21 21 20 23 25 26 28 30 31 31 31 31 31
33 32 30 30 29 29 28 27 27 27 26 26 26 26 24 23 22 21 20 21 21 21 19 21 21 19 19 18 18 19 20 21 23 28 28 27 31 32 33 33 34 32 30
27 26 26 26 26 26 25 24 24 25 24 22 20 18 16 17 17 15 14 13 14 15 15 15 16 15 14 15 16 17 20 22 24 30 27 22 24 25 25 27 28 28 28
25 24 23 24 24 23 22 22 21 20 18 14 12 12 13 14 14 12 9 8 7 8 10 11 11 12 12 13 14 18 19 21 22 27 24 19 21 24 23 22 23 24 25
24 22 21 20 20 20 18 17 15 12 10 9 9 10 11 12 11 11 7 4 5 6 9 10 11 11 12 12 14 16 17 18 21 26 23 20 22 23 23 23 22 21 20
17 17 16 16 17 17 17 16 13 11 10 9 10 10 9 10 11 11 7 2 4 7 9 10 9 11 14 16 17 18 18 17 20 24 23 21 22 22 23 22 21 19 17
19 19 18 18 18 18 17 16 13 12 11 11 11 11 11 11 10 9 5 2 2 6 9 11 12 13 16 19 21 20 18 17 20 23 21 20 20 20 20 20 19 18 17
22 22 22 21 20 19 18 16 14 13 12 12 13 13 13 13 11 8 4 1 3 4 7 10 12 14 17 23 24 23 20 20 22 22 20 19 18 16 15 16 17 18 16
Wind_Direction
280 280 281 280 280 279 278 277 277 276 275 274 273 272 271 270 269 270 270 270 270 271 271 270 271 271 272 273 273 273 272 270 268 268 269 269 268 268 267 268 270 271 271
278 278 279 280 280 280 279 279 277 276 275 275 274 273 272 271 270 270 270 270 270 270 270 271 273 273 273 273 273 272 272 271 271 270 270 270 269 268 268 269 270 269 270
279 278 277 277 278 279 280 279 278 278 278 277 276 275 274 273 272 272 271 271 271 271 271 271 272 273 274 274 274 274 273 272 272 271 271 271 270 269 270 271 271 270 268
284 283 282 281 281 281 281 280 279 278 278 277 275 274 273 272 274 274 274 274 273 272 271 270 271 272 274 275 275 275 275 274 273 272 271 270 270 269 269 269 270 270 269
291 291 290 287 285 283 281 279 278 278 276 275 273 272 271 271 272 273 274 274 272 270 270 270 270 271 273 275 276 276 275 273 271 270 270 270 269 268 267 267 267 269 270
294 295 294 292 289 287 284 280 277 275 274 274 272 271 270 270 270 271 272 272 271 270 270 270 271 272 273 275 276 275 274 273 270 268 268 268 268 268 268 267 266 265 265
297 297 298 296 294 293 291 288 285 282 280 279 276 273 271 270 271 273 273 273 273 274 275 275 275 275 275 276 275 274 272 271 270 268 266 266 265 266 267 267 265 263 261
298 300 301 300 299 298 296 294 291 288 286 285 282 279 276 271 268 269 270 272 275 277 278 278 277 277 276 276 275 273 270 269 268 266 265 263 262 262 264 265 264 261 259
299 301 301 300 299 297 295 293 291 289 286 285 284 282 280 276 270 266 265 267 270 272 275 276 275 273 273 273 272 271 269 267 266 264 263 262 261 260 260 261 262 260 258
301 301 300 298 297 295 294 292 291 289 288 286 284 282 281 279 276 272 269 269 270 272 273 273 270 268 267 268 268 268 267 266 265 263 261 259 258 257 256 256 257 257 256
299 299 298 297 296 294 292 290 288 287 286 286 284 283 282 281 280 279 276 273 274 275 275 272 268 265 265 265 265 265 265 265 264 263 260 258 256 254 253 253 253 254 255
298 298 298 297 296 295 292 288 286 285 285 285 285 285 284 283 283 282 280 278 277 275 273 270 268 267 267 266 265 264 264 264 263 263 261 257 253 251 250 250 250 252 254
298 298 298 296 294 291 289 288 288 287 287 287 287 286 285 285 283 281 279 277 274 271 269 267 265 265 265 262 260 260 261 262 261 261 259 255 252 248 246 246 247 248 251
298 297 295 294 292 292 291 290 290 289 288 288 288 287 286 285 283 281 279 277 274 272 270 265 259 258 257 256 257 260 262 263 262 260 257 253 248 244 243 243 244 245 248
297 295 293 291 291 291 290 288 287 286 286 287 286 285 284 284 283 280 278 277 277 275 267 257 254 255 257 259 262 263 263 264 262 259 255 249 242 238 238 239 239 241 243
297 294 290 289 291 292 291 287 286 285 286 287 286 285 284 284 283 280 279 278 279 276 264 255 255 254 255 257 257 256 260 262 264 261 248 237 232 232 234 237 236 237 240
295 292 290 289 290 292 291 289 288 288 289 289 288 287 286 285 284 282 281 280 278 273 263 254 252 252 252 252 251 255 259 260 262 251 225 221 223 226 231 236 236 238 242
293 293 293 293 293 294 294 293 292 292 291 290 287 286 286 285 286 283 280 276 272 268 260 251 245 246 249 251 253 257 256 252 240 222 206 209 215 218 224 229 233 235 238
297 298 299 300 301 301 300 298 295 293 292 290 289 290 290 289 288 284 276 270 265 264 256 243 240 244 248 252 253 252 245 235 220 201 190 196 207 210 209 210 211 217 223
304 305 306 307 306 304 302 299 295 291 291 294 297 298 298 295 292 286 274 265 261 260 251 238 239 240 244 246 247 239 227 218 210 198 189 191 195 194 194 198 207 218 226
312 312 311 309 308 306 303 299 294 291 293 297 299 300 303 304 301 292 277 264 258 251 238 233 231 231 232 234 230 218 213 214 212 204 193 184 184 181 182 187 201 214 221
317 315 313 311 311 312 311 308 304 299 298 299 300 303 310 316 316 310 287 265 252 241 223 211 210 213 215 216 210 204 206 211 213 209 197 183 182 184 189 194 203 210 216
320 319 318 319 322 324 328 332 331 322 318 314 311 313 318 328 342 342 329 272 233 218 202 201 214 210 204 198 193 192 196 201 205 202 193 178 180 185 192 200 207 213 221
341 342 342 341 340 340 340 340 337 333 332 326 317 311 312 326 344 348 342 297 213 205 200 199 201 203 196 189 184 180 184 195 199 195 187 180 182 188 195 202 207 211 218
0 358 354 349 347 348 348 344 336 329 327 324 318 306 300 309 327 341 358 7 206 200 192 192 194 191 189 187 183 180 182 183 183 186 186 186 192 200 204 207 210 213 219
351 348 345 342 340 338 339 340 338 333 334 333 327 314 300 295 298 304 312 53 97 151 171 181 188 189 187 182 179 177 178 176 178 186 191 198 203 205 208 212 216 217 222
Height
5841 5840 5838 5837 5835 5834 5832 5829 5827 5826 5825 5823 5822 5820 5818 5817 5816 5815 5814 5814 5813 5812 5812 5811 5811 5811 5811 5811 5811 5811 5812 5811 5811 5812 5812 5813 5814 5816 5817 5817 5816 5817 5817
5834 5833 5831 5830 5828 5825 5823 5821 5819 5817 5816 5815 5813 5811 5809 5807 5806 5804 5804 5803 5803 5802 5802 5802 5802 5801 5801 5800 5801 5802 5803 5803 5802 5803 5803 5804 5805 5806 5807 5808 5808 5808 5809
5827 5825 5823 5820 5818 5815 5813 5811 5809 5807 5806 5805 5803 5802 5800 5797 5795 5794 5793 5791 5791 5791 5791 5791 5791 5791 5790 5790 5790 5791 5792 5792 5793 5793 5794 5795 5796 5797 5798 5799 5800 5801 5800
5819 5817 5814 5811 5808 5805 5802 5800 5798 5797 5795 5793 5792 5790 5788 5786 5784 5782 5781 5779 5778 5778 5777 5777 5778 5778 5778 5779 5780 5780 5780 5781 5782 5782 5783 5784 5785 5786 5787 5789 5790 5792 5792
5808 5806 5803 5801 5798 5795 5792 5789 5787 5786 5783 5780 5778 5777 5775 5773 5771 5769 5768 5767 5765 5764 5764 5764 5763 5764 5764 5765 5766 5767 5768 5769 5770 5770 5771 5773 5774 5775 5776 5778 5780 5782 5784
5797 5794 5791 5788 5785 5782 5779 5776 5774 5771 5769 5766 5764 5763 5762 5760 5757 5755 5753 5753 5752 5751 5750 5750 5749 5749 5750 5751 5752 5753 5754 5756 5757 5758 5759 5761 5762 5763 5765 5767 5769 5771 5773
5784 5780 5777 5774 5771 5767 5764 5760 5758 5756 5754 5750 5747 5746 5747 5745 5742 5739 5738 5738 5737 5736 5735 5734 5733 5734 5734 5735 5736 5738 5739 5740 5743 5744 5746 5748 5750 5752 5753 5756 5758 5760 5762
5770 5766 5763 5759 5756 5752 5748 5744 5741 5739 5738 5734 5729 5726 5727 5730 5728 5725 5724 5722 5721 5719 5718 5716 5715 5715 5717 5718 5719 5721 5722 5724 5727 5729 5731 5734 5736 5739 5741 5744 5747 5749 5751
5757 5752 5747 5743 5740 5736 5732 5727 5722 5719 5718 5717 5710 5705 5704 5706 5707 5709 5707 5706 5704 5702 5700 5698 5696 5696 5697 5699 5700 5702 5704 5707 5710 5713 5715 5718 5721 5724 5728 5731 5735 5738 5739
5740 5735 5730 5725 5721 5717 5712 5707 5702 5697 5694 5693 5690 5684 5679 5679 5678 5679 5684 5685 5683 5681 5679 5677 5675 5675 5676 5678 5680 5683 5685 5688 5691 5695 5698 5701 5704 5708 5712 5717 5721 5724 5727
5724 5718 5712 5706 5701 5696 5691 5686 5682 5677 5672 5669 5667 5662 5657 5654 5652 5647 5652 5659 5657 5656 5655 5654 5652 5652 5654 5657 5660 5663 5665 5668 5671 5675 5679 5683 5687 5691 5695 5701 5706 5709 5713
5708 5700 5693 5687 5680 5674 5669 5664 5660 5656 5651 5647 5644 5640 5636 5632 5630 5624 5623 5631 5633 5634 5632 5631 5629 5629 5632 5636 5639 5643 5646 5648 5651 5654 5659 5665 5669 5674 5678 5684 5690 5695 5699
5690 5683 5676 5669 5663 5656 5650 5644 5640 5636 5631 5628 5624 5620 5616 5612 5608 5604 5601 5605 5609 5613 5611 5611 5608 5609 5612 5616 5620 5623 5626 5629 5631 5634 5638 5644 5650 5656 5662 5668 5675 5681 5686
5671 5665 5659 5652 5646 5639 5633 5628 5623 5619 5614 5610 5606 5602 5598 5595 5591 5587 5584 5584 5587 5592 5592 5592 5590 5592 5595 5599 5603 5606 5608 5610 5611 5614 5618 5623 5630 5638 5645 5652 5660 5668 5675
5652 5647 5641 5636 5630 5624 5618 5612 5607 5603 5598 5594 5590 5586 5582 5579 5575 5572 5570 5569 5570 5572 5575 5575 5576 5579 5582 5585 5588 5591 5593 5594 5595 5597 5600 5606 5614 5622 5630 5637 5647 5656 5663
5636 5630 5625 5619 5614 5608 5601 5595 5591 5587 5582 5578 5574 5570 5568 5565 5562 5559 5558 5556 5556 5556 5560 5564 5566 5569 5572 5575 5578 5580 5583 5584 5585 5586 5590 5595 5602 5611 5619 5628 5637 5645 5652
5621 5615 5609 5603 5597 5591 5585 5580 5576 5572 5568 5564 5561 5558 5555 5552 5550 5548 5547 5546 5546 5547 5550 5555 5557 5560 5563 5566 5570 5572 5574 5576 5577 5579 5583 5589 5596 5605 5613 5621 5629 5636 5643
5606 5599 5593 5587 5582 5576 5571 5567 5564 5561 5558 5555 5551 5548 5546 5544 5541 5539 5538 5537 5538 5539 5542 5546 5549 5552 5555 5558 5562 5564 5566 5568 5571 5575 5580 5586 5593 5601 5609 5616 5623 5629 5635
5593 5587 5581 5576 5571 5566 5562 5559 5556 5553 5550 5547 5544 5542 5539 5536 5533 5531 5530 5530 5531 5532 5534 5538 5541 5544 5548 5551 5554 5557 5559 5563 5567 5572 5578 5585 5591 5597 5604 5611 5618 5624 5629
5584 5578 5573 5568 5564 5559 5555 5552 5549 5546 5543 5541 5538 5535 5531 5528 5525 5523 5523 5523 5524 5525 5527 5530 5534 5538 5541 5545 5548 5551 5554 5559 5564 5569 5574 5581 5587 5592 5599 5606 5613 5619 5624
5577 5572 5567 5563 5558 5554 5550 5546 5542 5539 5537 5534 5532 5529 5526 5523 5521 5518 5518 5518 5518 5520 5522 5526 5529 5533 5537 5541 5544 5547 5551 5556 5561 5566 5571 5577 5583 5590 5595 5602 5609 5615 5620
5572 5568 5563 5558 5554 5549 5544 5540 5536 5533 5532 5530 5528 5526 5524 5521 5518 5515 5514 5514 5515 5517 5519 5523 5526 5530 5534 5538 5541 5545 5549 5554 5560 5564 5570 5576 5582 5588 5594 5600 5606 5611 5616
5569 5563 5559 5554 5549 5544 5540 5536 5532 5530 5529 5528 5526 5524 5522 5519 5517 5514 5513 5513 5514 5516 5518 5521 5524 5528 5532 5536 5540 5544 5549 5553 5558 5563 5570 5576 5582 5588 5593 5598 5603 5608 5612
5565 5560 5556 5551 5546 5542 5538 5535 5532 5530 5528 5527 5525 5522 5520 5519 5516 5515 5513 5513 5513 5515 5517 5520 5523 5527 5531 5535 5539 5544 5548 5553 5558 5565 5571 5576 5581 5587 5592 5596 5601 5605 5608
5565 5560 5555 5550 5546 5541 5537 5534 5531 5529 5527 5525 5523 5521 5519 5518 5516 5515 5514 5513 5514 5515 5516 5519 5522 5526 5530 5534 5539 5544 5549 5554 5560 5566 5572 5576 5581 5585 5590 5594 5598 5602 5605
5565 5560 5555 5550 5545 5541 5536 5533 5530 5527 5525 5523 5521 5519 5517 5515 5515 5515 5515 5515 5515 5515 5517 5519 5522 5525 5529 5533 5538 5543 5549 5556 5562 5567 5571 5576 5580 5584 5588 5591 5595 5599 5602